Location: Unspecified
(0.0000°N, 0.0000°E)
Time: 23:04:08
(UTC+02:00)

Tiros 1 despin weight - All Passes

Search period start: 01 September 2014 00:00
Search period end: 11 September 2014 00:00
Orbit: 601 x 653 km, 48.2° (Epoch: 31 August)

Date Brightness Start Highest point End Pass type
(mag) Time Alt. Az. Time Alt. Az. Time Alt. Az.
01 Sep - 02:49:54 10° SSW 02:54:12 45° SE 02:58:33 10° NE night (unlit)
01 Sep - 04:33:41 10° WNW 04:35:50 13° NW 04:38:00 10° NNW night (unlit)
01 Sep - 14:59:23 10° NW 15:04:04 81° NE 15:08:40 10° SE daylight
02 Sep - 01:31:31 10° SE 01:31:58 10° SE 01:32:24 10° SE night (unlit)
02 Sep - 03:09:09 10° SW 03:13:35 58° NW 03:18:03 10° NNE night (unlit)
02 Sep - 13:38:34 10° N 13:41:49 18° NE 13:45:02 10° E daylight
02 Sep - 15:19:13 10° WNW 15:23:26 34° SW 15:27:36 10° SSE daylight
03 Sep - 01:47:31 10° S 01:51:24 29° SE 01:55:20 10° ENE night (unlit)
03 Sep - 03:29:41 10° W 03:32:59 20° NW 03:36:19 10° N night (unlit)
03 Sep - 13:56:41 10° NNW 14:01:14 51° NE 14:05:45 10° SE daylight
03 Sep - 15:40:58 10° WSW 15:42:52 12° SW 15:44:45 10° SSW daylight
04 Sep - 02:06:18 10° SW 02:10:47 88° SE 02:15:19 10° NE night (unlit)
04 Sep - 12:37:04 10° NNE 12:38:56 12° NE 12:40:48 10° ENE daylight
04 Sep - 14:16:03 10° NW 14:20:37 53° SW 14:25:08 10° SSE daylight
05 Sep - 00:45:25 10° S 00:48:35 19° SE 00:51:47 10° E night (unlit)
05 Sep - 02:26:14 10° WSW 02:30:09 30° NW 02:34:08 10° N night (unlit)
05 Sep - 12:54:10 10° NNW 12:58:24 33° NE 13:02:36 10° ESE daylight
05 Sep - 14:36:42 10° W 14:40:00 19° SW 14:43:17 10° S daylight
06 Sep - 01:03:37 10° SSW 01:07:59 55° SE 01:12:23 10° NE night (unlit)
06 Sep - 02:48:40 10° WNW 02:49:37 11° NW 02:50:35 10° NW night (unlit)
06 Sep - 13:13:04 10° NW 13:17:47 84° SW 13:22:27 10° SE daylight
06 Sep - 23:43:56 10° SSE 23:45:45 12° SE 23:47:34 10° ESE night (unlit)
07 Sep - 01:23:03 10° SW 01:27:20 47° NW 01:31:40 10° NNE night (unlit)
07 Sep - 11:51:53 10° N 11:55:32 22° NE 11:59:10 10° E daylight
07 Sep - 13:33:06 10° WNW 13:37:09 29° SW 13:41:10 10° S daylight
08 Sep - 00:01:07 10° SSW 00:05:10 34° SE 00:09:15 10° ENE night (unlit)
08 Sep - 01:43:56 10° W 01:46:45 16° NW 01:49:36 10° N night (unlit)
08 Sep - 12:10:16 10° NNW 12:14:56 63° NE 12:19:34 10° SE daylight
08 Sep - 13:55:56 10° WSW 13:56:36 10° SW 13:57:15 10° SW daylight
09 Sep - 00:20:05 10° SW 00:24:32 76° NW 00:29:00 10° NE night (unlit)
09 Sep - 10:50:01 10° NNE 10:52:39 15° NE 10:55:17 10° E daylight
09 Sep - 12:29:49 10° WNW 12:34:18 44° SW 12:38:46 10° SSE daylight
09 Sep - 22:58:51 10° S 23:02:21 22° SE 23:05:50 10° ENE night (unlit)
10 Sep - 00:40:15 10° WSW 00:43:54 25° NW 00:47:34 10° N night (unlit)
10 Sep - 11:07:39 10° NNW 11:12:05 40° NE 11:16:29 10° ESE daylight
10 Sep - 12:50:48 10° W 12:53:42 16° SW 12:56:36 10° SSW daylight
10 Sep - 23:17:18 10° SSW 23:21:43 68° SE 23:26:08 10° NE night (unlit)
